This is the latest recevied weather packets stored in our database for station/object W5CDN. If no packets are shown the sender has not sent any weather packets the latest 10 day(s).
| Time | Temp. | Humidity | Pressure | Rain* | Wind** | Luminosity | Snow |
|---|---|---|---|---|---|---|---|
| 1788633262 | 33.89° C | 55% | 1011.8 hPa | 0 mm | - | - | - |
| 1788632962 | 33.33° C | 57% | 1011.8 hPa | 0 mm | - | - | - |
| 1788632662 | 35° C | 54% | 1011.8 hPa | 0 mm | - | - | - |
| 1788632362 | 34.44° C | 56% | 1012 hPa | 0 mm | - | - | - |
| 1788632062 | 35.56° C | 53% | 1012.1 hPa | 0 mm | - | - | - |
| 1788631762 | 33.89° C | 53% | 1012.1 hPa | 0 mm | - | - | - |
| 1788631462 | 33.89° C | 56% | 1012.3 hPa | 0 mm | - | - | - |
| 1788631162 | 33.89° C | 54% | 1012.5 hPa | 0 mm | - | - | - |
| 1788630862 | 33.89° C | 56% | 1012.5 hPa | 0 mm | - | - | - |
| 1788630562 | 33.33° C | 56% | 1013 hPa | 0 mm | - | - | - |
| 1788630262 | 32.22° C | 60% | 1012.9 hPa | 0 mm | - | - | - |
| 1788629962 | 33.33° C | 59% | 1012.9 hPa | 0 mm | - | - | - |
| 1788629662 | 32.78° C | 59% | 1012.9 hPa | 0 mm | - | - | - |
| 1788629362 | 32.78° C | 59% | 1013 hPa | 0 mm | - | - | - |
| 1788629062 | 33.33° C | 59% | 1013.1 hPa | 0 mm | - | - | - |
| 1788628762 | 32.22° C | 61% | 1013.1 hPa | 0 mm | - | - | - |
| 1788628522 | 32.78° C | 61% | 1013.3 hPa | 0 mm | - | - | - |
| 1788628282 | 33.89° C | 57% | 1013.1 hPa | 0 mm | - | - | - |
| 1788628042 | 32.78° C | 58% | 1013.2 hPa | 0 mm | - | - | - |
| 1788627804 | 32.22° C | 59% | 1013.1 hPa | 0 mm | - | - | - |
| 1788627682 | 32.78° C | 60% | 1013.4 hPa | 0 mm | - | - | - |
| 1788627562 | 32.78° C | 59% | 1013.3 hPa | 0 mm | - | - | - |
| 1788627442 | 32.22° C | 62% | 1013.5 hPa | 0 mm | - | - | - |
| 1788627322 | 32.78° C | 57% | 1013.4 hPa | 0 mm | - | - | - |
| 1788627262 | 32.78° C | 61% | 1013.3 hPa | 0 mm | - | - | - |
* Rain latest hour (hover to see other rain measurements)
** Current wind speed in m/s (hover to see current wind gust speed)